Glenwood, MN

11:08 AM CDT on May 27, 2018 (GMT -0500)
Glenwood Municipal

Weather History for KGHW - October, 2011

Change the Weather History Date:

Monday, October 10, 2011

  Actual Average Record
Temperature  
Mean Temperature 60 °F -  
Max Temperature 64 °F 58 °F 80 °F (1955)
Min Temperature 55 °F 36 °F 19 °F (1970)
Degree Days  
Heating Degree Days 6    
Growing Degree Days 10 (Base 50)    
Moisture  
Dew Point 51 °F    
Average Humidity 73    
Maximum Humidity 88    
Minimum Humidity 56    
Precipitation  
Precipitation 0.04 in - - ()
Sea Level Pressure  
Sea Level Pressure 29.96 in    
Wind  
Wind Speed 11 mph (SSE)    
Max Wind Speed 18 mph    
Max Gust Speed 25 mph    
Visibility 10 miles    
Events Rain    
Averages and records for this station are not official NWS values.
T = Trace of Precipitation, MM = Missing Value Source: NWS Daily Summary

Daily Weather History Graph

Daily Weather History Graph

Search for Another Location

Airport or City:

Astronomy

Oct. 10, 2011 Rise Set
Actual Time 7:30 AM CDT 6:45 PM CDT
Civil Twilight 7:01 AM CDT 7:14 PM CDT
Nautical Twilight 6:26 AM CDT 7:49 PM CDT
Astronomical Twilight 5:52 AM CDT 8:23 PM CDT
Moon 5:49 PM CDT (10/10) 6:11 AM CDT (10/10)
Length of Visible Light 12h 13m
Length of Day
11h 14m
Waxing Gibbous, 98% of the Moon is Illuminated
Oct 10
Waxing Gibbous
Oct 11
Full
Oct 19
Last Quarter
Oct 26
New
Nov 2
First Quarter

Hourly Weather History & Observations

Time (CDT) Temp. Dew Point Humidity Pressure Visibility Wind Dir Wind Speed Gust Speed Precip Events Conditions
12:13 AM 64.4 °F 48.2 °F 56% 30.06 in 10.0 mi SE 10.4 mph - N/A   Clear
12:34 AM 62.6 °F 48.2 °F 59% 30.06 in 10.0 mi SE 11.5 mph - N/A   Clear
12:53 AM 62.6 °F 48.2 °F 59% 30.05 in 10.0 mi SE 10.4 mph - N/A   Clear
1:14 AM 62.6 °F 48.2 °F 59% 30.05 in 10.0 mi SE 11.5 mph - N/A   Clear
1:34 AM 62.6 °F 48.2 °F 59% 30.05 in 10.0 mi SE 11.5 mph - N/A   Clear
1:54 AM 62.6 °F 48.2 °F 59% 30.04 in 10.0 mi SE 10.4 mph - N/A   Clear
2:13 AM 62.6 °F 48.2 °F 59% 30.04 in 10.0 mi SE 10.4 mph - N/A   Clear
2:34 AM 60.8 °F 48.2 °F 63% 30.04 in 10.0 mi SE 10.4 mph - N/A   Clear
2:53 AM 60.8 °F 48.2 °F 63% 30.03 in 10.0 mi SE 10.4 mph - N/A   Clear
3:14 AM 60.8 °F 48.2 °F 63% 30.03 in 10.0 mi SE 9.2 mph - N/A   Clear
3:34 AM 60.8 °F 48.2 °F 63% 30.02 in 10.0 mi SE 10.4 mph - N/A   Clear
3:53 AM 60.8 °F 48.2 °F 63% 30.03 in 10.0 mi SSE 10.4 mph - N/A   Clear
4:13 AM 60.8 °F 48.2 °F 63% 30.02 in 10.0 mi SE 10.4 mph - N/A   Clear
4:34 AM 60.8 °F 48.2 °F 63% 30.01 in 10.0 mi SE 10.4 mph - N/A   Clear
4:53 AM 59.0 °F 48.2 °F 67% 30.01 in 10.0 mi SE 9.2 mph - N/A   Clear
5:13 AM 59.0 °F 48.2 °F 67% 30.01 in 10.0 mi SE 11.5 mph - N/A   Clear
5:33 AM 59.0 °F 48.2 °F 67% 30.01 in 10.0 mi SE 9.2 mph - N/A   Clear
5:53 AM 59.0 °F 48.2 °F 67% 30.00 in 10.0 mi SE 9.2 mph - N/A   Clear
6:13 AM 57.2 °F 48.2 °F 72% 29.99 in 10.0 mi SE 6.9 mph - N/A   Clear
6:34 AM 57.2 °F 48.2 °F 72% 29.99 in 10.0 mi SE 6.9 mph - N/A   Clear
6:53 AM 55.4 °F 48.2 °F 77% 29.99 in 10.0 mi SE 8.1 mph - N/A   Clear
7:14 AM 55.4 °F 48.2 °F 77% 29.98 in 10.0 mi SE 8.1 mph - N/A   Clear
7:34 AM 55.4 °F 48.2 °F 77% 29.98 in 10.0 mi SE 9.2 mph - N/A   Clear
7:53 AM 55.4 °F 48.2 °F 77% 29.98 in 10.0 mi SE 9.2 mph - N/A   Clear
8:13 AM 57.2 °F 48.2 °F 72% 29.98 in 10.0 mi SE 10.4 mph - N/A   Clear
8:33 AM 57.2 °F 48.2 °F 72% 29.99 in 10.0 mi SSE 10.4 mph - N/A   Scattered Clouds
8:53 AM 57.2 °F 48.2 °F 72% 29.99 in 10.0 mi SSE 10.4 mph - N/A   Mostly Cloudy
9:14 AM 59.0 °F 50.0 °F 72% 29.98 in 10.0 mi SSE 10.4 mph - N/A   Mostly Cloudy
10:13 AM 62.6 °F 51.8 °F 68% 29.98 in 10.0 mi South 12.7 mph - N/A   Clear
10:34 AM 62.6 °F 51.8 °F 68% 29.98 in 10.0 mi South 16.1 mph - N/A   Scattered Clouds
10:53 AM 62.6 °F 51.8 °F 68% 29.98 in 10.0 mi South 15.0 mph 23.0 mph N/A   Mostly Cloudy
11:14 AM 60.8 °F 51.8 °F 72% 29.98 in 10.0 mi South 16.1 mph - N/A   Mostly Cloudy
11:33 AM 60.8 °F 51.8 °F 72% 29.97 in 10.0 mi South 15.0 mph - N/A   Mostly Cloudy
11:53 AM 62.6 °F 51.8 °F 68% 29.97 in 10.0 mi South 12.7 mph - N/A   Mostly Cloudy
12:13 PM 60.8 °F 51.8 °F 72% 29.97 in 10.0 mi South 15.0 mph - N/A   Drizzle
12:33 PM 59.0 °F 53.6 °F 82% 29.97 in 5.0 mi SSE 8.1 mph - 0.01 in Rain Rain
12:54 PM 59.0 °F 53.6 °F 82% 29.96 in 7.0 mi SSE 9.2 mph - 0.02 in Rain Rain
12:55 PM 59.0 °F 53.6 °F 82% 29.96 in 7.0 mi SSE 8.1 mph - 0.02 in Rain Rain
1:14 PM 59.0 °F 55.4 °F 88% 29.95 in 7.0 mi SE 9.2 mph - 0.01 in Rain Light Rain
1:34 PM 59.0 °F 55.4 °F 88% 29.94 in 5.0 mi SE 9.2 mph - 0.01 in   Drizzle
1:53 PM 59.0 °F 55.4 °F 88% 29.94 in 7.0 mi SSE 12.7 mph - 0.02 in Rain Rain
1:55 PM 59.0 °F 55.4 °F 88% 29.94 in 10.0 mi SE 11.5 mph 17.3 mph 0.02 in Rain Light Rain
2:13 PM 60.8 °F 55.4 °F 82% 29.92 in 10.0 mi SE 12.7 mph - N/A   Mostly Cloudy
2:33 PM 60.8 °F 55.4 °F 82% 29.91 in 10.0 mi SE 16.1 mph 24.2 mph N/A   Mostly Cloudy
2:53 PM 62.6 °F 55.4 °F 77% 29.90 in 10.0 mi SSE 18.4 mph 25.3 mph N/A   Mostly Cloudy
3:14 PM 62.6 °F 55.4 °F 77% 29.90 in 10.0 mi SSE 18.4 mph - N/A   Mostly Cloudy
3:33 PM 62.6 °F 55.4 °F 77% 29.90 in 10.0 mi SSE 17.3 mph - N/A   Mostly Cloudy
3:53 PM 64.4 °F 55.4 °F 73% 29.89 in 10.0 mi SSE 16.1 mph 21.9 mph N/A   Scattered Clouds
4:13 PM 64.4 °F 53.6 °F 68% 29.89 in 10.0 mi South 13.8 mph 25.3 mph N/A   Mostly Cloudy
4:33 PM 62.6 °F 53.6 °F 72% 29.88 in 10.0 mi SSE 13.8 mph - N/A   Mostly Cloudy
4:53 PM 64.4 °F 53.6 °F 68% 29.88 in 10.0 mi SSE 13.8 mph - N/A   Mostly Cloudy
5:14 PM 64.4 °F 53.6 °F 68% 29.87 in 10.0 mi SSE 16.1 mph - N/A   Scattered Clouds
5:53 PM 62.6 °F 53.6 °F 72% 29.87 in 10.0 mi South 9.2 mph 16.1 mph N/A   Mostly Cloudy
6:13 PM 62.6 °F 53.6 °F 72% 29.86 in 10.0 mi SSE 11.5 mph - N/A   Scattered Clouds
6:33 PM 60.8 °F 53.6 °F 77% 29.86 in 10.0 mi SSE 9.2 mph - N/A   Scattered Clouds
7:14 PM 59.0 °F 53.6 °F 82% 29.87 in 10.0 mi SE 10.4 mph - N/A   Clear
7:33 PM 59.0 °F 53.6 °F 82% 29.87 in 10.0 mi SSE 10.4 mph - N/A   Scattered Clouds
7:53 PM 59.0 °F 53.6 °F 82% 29.87 in 10.0 mi SE 9.2 mph - N/A   Mostly Cloudy
8:13 PM 59.0 °F 53.6 °F 82% 29.87 in 10.0 mi SSE 11.5 mph - N/A   Mostly Cloudy
8:33 PM 57.2 °F 53.6 °F 88% 29.87 in 10.0 mi SSE 9.2 mph - N/A   Scattered Clouds
8:53 PM 57.2 °F 53.6 °F 88% 29.88 in 10.0 mi SSW 8.1 mph - N/A   Scattered Clouds
9:14 PM 55.4 °F 51.8 °F 88% 29.88 in 10.0 mi South 6.9 mph - N/A   Clear
9:33 PM 55.4 °F 51.8 °F 88% 29.87 in 10.0 mi SSE 5.8 mph - N/A   Clear
9:53 PM 55.4 °F 51.8 °F 88% 29.87 in 10.0 mi SSE 8.1 mph - N/A   Clear
10:13 PM 55.4 °F 51.8 °F 88% 29.87 in 10.0 mi SSE 9.2 mph - N/A   Clear
10:33 PM 55.4 °F 51.8 °F 88% 29.87 in 10.0 mi SSE 10.4 mph - N/A   Clear
10:53 PM 55.4 °F 51.8 °F 88% 29.87 in 10.0 mi SSE 9.2 mph - N/A   Clear
11:13 PM 55.4 °F 51.8 °F 88% 29.87 in 10.0 mi SSE 11.5 mph - N/A   Clear
11:33 PM 55.4 °F 50.0 °F 82% 29.86 in 10.0 mi SSE 10.4 mph - N/A   Clear
11:53 PM 55.4 °F 50.0 °F 82% 29.86 in 10.0 mi South 10.4 mph - N/A   Clear